,,,PA_Meas_PMT16A,,PR_Meas_QMR101_102,,RH_Meas_QMH101,,SR_Meas_QMS101,,TA_Meas_QMH101,,GenWind,,GenWind,
date,time,status,PA,status,PR,status,RH,status,SR,status,TA,status,DirAvg,status,SpdAvg,
2011-09-14, 00:00:05,VALID,1001.6,VALID,0,VALID,92.6846,VALID,0,VALID,23.7775,VALID,101,VALID,0.751953,
2011-09-14, 00:01:05,VALID,1001.59,VALID,0,VALID,92.677,VALID,0,VALID,23.7775,VALID,101,VALID,0.713281,
2011-09-14, 00:02:05,VALID,1001.57,VALID,0,VALID,92.6312,VALID,0,VALID,23.7579,VALID,101,VALID,0.516797,
2011-09-14, 00:03:05,VALID,1001.58,VALID,0,VALID,92.5626,VALID,0,VALID,23.7793,VALID,101,VALID,0.1375,
2011-09-14, 00:04:05,VALID,1001.56,VALID,0,VALID,92.5168,VALID,0,VALID,23.7579,VALID,101,VALID,0.1125,
2011-09-14, 00:05:05,VALID,1001.55,VALID,0,VALID,92.4557,VALID,0,VALID,23.7384,VALID,101,VALID,0.6625,
2011-09-14, 00:06:05,VALID,1001.56,VALID,0,VALID,92.4023,VALID,0,VALID,23.7597,VALID,72,VALID,1.20117,
2011-09-14, 00:07:05,VALID,1001.6,VALID,0,VALID,92.3337,VALID,0,VALID,23.7793,VALID,62,VALID,1.06992,
2011-09-14, 00:08:05,VALID,1001.62,VALID,0,VALID,92.3108,VALID,0,VALID,23.7775,VALID,65,VALID,0.969531,
2011-09-14, 00:09:05,VALID,1001.62,VALID,0,VALID,92.2879,VALID,0,VALID,23.7775,VALID,95,VALID,1.26367,
2011-09-14, 00:10:05,VALID,1001.58,VALID,0,VALID,92.3184,VALID,0,VALID,23.797,VALID,103,VALID,0.875781,
2011-09-14, 00:11:05,VALID,1001.56,VALID,0,VALID,92.3413,VALID,0,VALID,23.8183,VALID,103,VALID,0.200391,
2011-09-14, 00:12:05,VALID,1001.56,VALID,0,VALID,92.3794,VALID,0,VALID,23.8183,VALID,103,VALID,0.214453,
2011-09-14, 00:13:05,VALID,1001.57,VALID,0,VALID,92.3642,VALID,0,VALID,23.797,VALID,103,VALID,0.0265625,
2011-09-14, 00:14:05,VALID,1001.56,VALID,0,VALID,92.3947,VALID,0,VALID,23.7775,VALID,103,VALID,0.000390625,
2011-09-14, 00:15:05,VALID,1001.58,VALID,0,VALID,92.3871,VALID,0,VALID,23.7988,VALID,103,VALID,0.308203,
2011-09-14, 00:16:05,VALID,1001.52,VALID,0,VALID,92.3871,VALID,0,VALID,23.7597,VALID,103,VALID,0.110547,
2011-09-14, 00:17:05,VALID,1001.51,VALID,0,VALID,92.3871,VALID,0,VALID,23.7579,VALID,103,VALID,0.112891,
2011-09-14, 00:18:05,VALID,1001.45,VALID,0,VALID,92.3947,VALID,0,VALID,23.7384,VALID,103,VALID,0.855859,
2011-09-14, 00:19:05,VALID,1001.43,VALID,0,VALID,92.3794,VALID,0,VALID,23.7189,VALID,103,VALID,0.329688,
2011-09-14, 00:20:05,VALID,1001.4,VALID,0,VALID,92.3413,VALID,0,VALID,23.7189,VALID,103,VALID,0,
2011-09-14, 00:21:05,VALID,1001.38,VALID,0,VALID,92.3413,VALID,0,VALID,23.7189,VALID,103,VALID,0,
2011-09-14, 00:22:05,VALID,1001.37,VALID,0,VALID,92.3413,VALID,0,VALID,23.7207,VALID,103,VALID,0.536328,
2011-09-14, 00:23:05,VALID,1001.36,VALID,0,VALID,92.3413,VALID,0,VALID,23.7402,VALID,103,VALID,0.699609,
2011-09-14, 00:24:05,VALID,1001.32,VALID,0,VALID,92.326,VALID,0,VALID,23.7597,VALID,103,VALID,0.569141,
2011-09-14, 00:25:05,VALID,1001.21,VALID,0,VALID,92.3337,VALID,0,VALID,23.7384,VALID,103,VALID,0.792969,
2011-09-14, 00:26:05,VALID,1001.17,VALID,0.5,VALID,92.3413,VALID,0,VALID,23.7597,VALID,103,VALID,0.757813,
2011-09-14, 00:27:05,VALID,1001.19,VALID,0,VALID,92.3566,VALID,0,VALID,23.7988,VALID,103,VALID,0.811328,
2011-09-14, 00:28:05,VALID,1001.18,VALID,0,VALID,92.3871,VALID,0,VALID,23.7988,VALID,103,VALID,1.01367,
2011-09-14, 00:29:05,VALID,1001.13,VALID,0,VALID,92.41,VALID,0,VALID,23.7988,VALID,103,VALID,0.949609,
2011-09-14, 00:30:05,VALID,1001.13,VALID,0,VALID,92.4328,VALID,0,VALID,23.7988,VALID,103,VALID,0.657422,
2011-09-14, 00:31:05,VALID,1001.09,VALID,0,VALID,92.4634,VALID,0,VALID,23.7775,VALID,103,VALID,0.7,
2011-09-14, 00:32:05,VALID,1001.09,VALID,0,VALID,92.4481,VALID,0,VALID,23.7579,VALID,103,VALID,0.289453,
2011-09-14, 00:33:05,VALID,1001.11,VALID,0,VALID,92.4634,VALID,0,VALID,23.7775,VALID,103,VALID,0.589453,
2011-09-14, 00:34:05,VALID,1001.08,VALID,0,VALID,92.4481,VALID,0,VALID,23.7775,VALID,103,VALID,0.210938,
2011-09-14, 00:35:05,VALID,1001.07,VALID,0,VALID,92.4328,VALID,0,VALID,23.7579,VALID,103,VALID,0.546484,
2011-09-14, 00:36:05,VALID,1001.05,VALID,0,VALID,92.4252,VALID,0,VALID,23.7988,VALID,103,VALID,0.697266,
2011-09-14, 00:37:05,VALID,1000.99,VALID,0,VALID,92.4481,VALID,0,VALID,23.797,VALID,103,VALID,0.5125,
2011-09-14, 00:38:05,VALID,1000.96,VALID,0,VALID,92.4252,VALID,0,VALID,23.7775,VALID,103,VALID,0.0980469,
2011-09-14, 00:39:05,VALID,1000.89,VALID,0,VALID,92.4328,VALID,0,VALID,23.7775,VALID,103,VALID,0,
2011-09-14, 00:40:05,VALID,1000.89,VALID,0,VALID,92.4328,VALID,0,VALID,23.797,VALID,103,VALID,0,
2011-09-14, 00:41:05,VALID,1000.79,VALID,0,VALID,92.4328,VALID,0.112286,VALID,23.797,VALID,350,VALID,1.26719,
2011-09-14, 00:42:05,VALID,1000.83,VALID,0,VALID,92.4634,VALID,0,VALID,23.8165,VALID,341,VALID,0.896875,
2011-09-14, 00:43:05,VALID,1000.82,VALID,0,VALID,92.5168,VALID,0,VALID,23.8165,VALID,341,VALID,0.287891,
2011-09-14, 00:44:05,VALID,1000.83,VALID,0,VALID,92.5015,VALID,0,VALID,23.8183,VALID,341,VALID,0.353906,
2011-09-14, 00:45:05,VALID,1000.75,VALID,0,VALID,92.4786,VALID,0,VALID,23.8165,VALID,341,VALID,0,
2011-09-14, 00:46:05,VALID,1000.82,VALID,0,VALID,92.4328,VALID,0,VALID,23.7988,VALID,10,VALID,0.235938,
2011-09-14, 00:47:05,VALID,1000.75,VALID,0,VALID,92.41,VALID,0,VALID,23.797,VALID,52,VALID,1.53437,
2011-09-14, 00:48:05,VALID,1000.76,VALID,0,VALID,92.3794,VALID,0,VALID,23.8165,VALID,32,VALID,1.03906,
2011-09-14, 00:49:05,VALID,1000.72,VALID,0,VALID,92.3413,VALID,0,VALID,23.8378,VALID,34,VALID,1.06875,
2011-09-14, 00:50:05,VALID,1000.73,VALID,0,VALID,92.3031,VALID,0,VALID,23.836,VALID,40,VALID,0.975,
2011-09-14, 00:51:05,VALID,1000.71,VALID,0,VALID,92.2955,VALID,0,VALID,23.8573,VALID,48,VALID,2.01875,
2011-09-14, 00:52:05,VALID,1000.71,VALID,0,VALID,92.0132,VALID,0,VALID,23.8573,VALID,35,VALID,2.16289,
2011-09-14, 00:53:05,VALID,1000.75,VALID,0,VALID,91.6165,VALID,0,VALID,23.9726,VALID,182,VALID,2.23906,
2011-09-14, 00:54:05,VALID,1000.73,VALID,0,VALID,91.0595,VALID,0,VALID,23.9726,VALID,145,VALID,1.225,
2011-09-14, 00:55:05,VALID,1000.67,VALID,0,VALID,90.0906,VALID,0,VALID,24.111,VALID,116,VALID,1.78086,
2011-09-14, 00:56:05,VALID,1000.67,VALID,0,VALID,90.1058,VALID,0,VALID,24.1677,VALID,117,VALID,1.18672,
2011-09-14, 00:57:05,VALID,1000.68,VALID,0,VALID,90.0906,VALID,0,VALID,24.1677,VALID,150,VALID,0.847656,
2011-09-14, 00:58:05,VALID,1000.68,VALID,0,VALID,89.5489,VALID,0,VALID,24.1891,VALID,112,VALID,0.927734,
2011-09-14, 00:59:05,VALID,1000.63,VALID,0,VALID,89.1063,VALID,0,VALID,24.2086,VALID,104,VALID,1.44102,
2011-09-14, 01:00:05,VALID,1000.65,VALID,0,VALID,89.3886,VALID,0,VALID,24.2086,VALID,72,VALID,2.32227,
2011-09-14, 01:01:05,VALID,1000.6,VALID,0,VALID,88.8546,VALID,0,VALID,24.1305,VALID,39,VALID,1.96875,
2011-09-14, 01:02:05,VALID,1000.63,VALID,0,VALID,89.5412,VALID,0,VALID,24.1696,VALID,26,VALID,0.898047,
2011-09-14, 01:03:05,VALID,1000.57,VALID,0,VALID,89.9532,VALID,0,VALID,24.1092,VALID,42,VALID,1.18555,
2011-09-14, 01:04:05,VALID,1000.56,VALID,0,VALID,90.2737,VALID,0,VALID,24.072,VALID,38,VALID,0.358984,
2011-09-14, 01:05:05,VALID,1000.53,VALID,0,VALID,90.3194,VALID,0,VALID,24.0134,VALID,58,VALID,1.25781,
2011-09-14, 01:06:05,VALID,1000.53,VALID,0,VALID,89.6404,VALID,0,VALID,23.9939,VALID,63,VALID,0.372656,
2011-09-14, 01:07:05,VALID,1000.47,VALID,0,VALID,89.2894,VALID,0,VALID,24.0116,VALID,43,VALID,0.738672,
2011-09-14, 01:08:05,VALID,1000.5,VALID,0,VALID,89.587,VALID,0,VALID,24.0525,VALID,36,VALID,0.335156,
2011-09-14, 01:09:05,VALID,1000.48,VALID,0,VALID,89.7243,VALID,0,VALID,24.0134,VALID,36,VALID,0.161719,
2011-09-14, 01:10:05,VALID,1000.46,VALID,0,VALID,89.8769,VALID,0,VALID,23.9957,VALID,36,VALID,0.220313,
2011-09-14, 01:11:05,VALID,1000.41,VALID,0,VALID,89.8311,VALID,0,VALID,23.9762,VALID,67,VALID,0.844531,
2011-09-14, 01:12:05,VALID,1000.33,VALID,0,VALID,89.5565,VALID,0,VALID,23.9957,VALID,16,VALID,2.00469,
2011-09-14, 01:13:05,VALID,1000.38,VALID,0,VALID,89.6175,VALID,0,VALID,24.0348,VALID,223,VALID,1.73398,
2011-09-14, 01:14:05,VALID,1000.42,VALID,0,VALID,89.4268,VALID,0,VALID,24.0348,VALID,65,VALID,0.899609,
2011-09-14, 01:15:05,VALID,1000.4,VALID,0,VALID,89.4497,VALID,0,VALID,24.0348,VALID,45,VALID,1.65117,
2011-09-14, 01:16:05,VALID,1000.36,VALID,0,VALID,89.6099,VALID,0,VALID,24.0153,VALID,43,VALID,1.275,
2011-09-14, 01:17:05,VALID,1000.38,VALID,0,VALID,89.8083,VALID,0,VALID,23.9957,VALID,49,VALID,1.35273,
2011-09-14, 01:18:05,VALID,1000.35,VALID,0,VALID,90.0371,VALID,0,VALID,23.9762,VALID,93,VALID,1.11875,
2011-09-14, 01:19:05,VALID,1000.31,VALID,0,VALID,90.35,VALID,0,VALID,23.9372,VALID,107,VALID,0.926562,
2011-09-14, 01:20:05,VALID,1000.28,VALID,0,VALID,90.5407,VALID,0,VALID,23.9177,VALID,107,VALID,0.940234,
2011-09-14, 01:21:05,VALID,1000.28,VALID,0,VALID,90.5102,VALID,0,VALID,23.8982,VALID,60,VALID,1.19102,
2011-09-14, 01:22:05,VALID,1000.25,VALID,0,VALID,90.1745,VALID,0,VALID,23.8982,VALID,29,VALID,1.41523,
2011-09-14, 01:23:05,VALID,1000.28,VALID,0,VALID,89.4649,VALID,0,VALID,23.9372,VALID,49,VALID,1.09297,
2011-09-14, 01:24:05,VALID,1000.21,VALID,0,VALID,87.8703,VALID,0,VALID,24.0134,VALID,8,VALID,0.894141,
2011-09-14, 01:25:05,VALID,1000.21,VALID,0,VALID,87.0158,VALID,0,VALID,24.2281,VALID,340,VALID,0.307813,
2011-09-14, 01:26:05,VALID,1000.22,VALID,0,VALID,87.2905,VALID,0,VALID,24.2671,VALID,284,VALID,0.296875,
2011-09-14, 01:27:05,VALID,1000.27,VALID,0,VALID,87.4965,VALID,0,VALID,24.2671,VALID,347,VALID,0.727734,
2011-09-14, 01:28:05,VALID,1000.29,VALID,0,VALID,87.0845,VALID,0,VALID,24.2476,VALID,347,VALID,0.351563,
2011-09-14, 01:29:05,VALID,1000.31,VALID,0,VALID,87.8474,VALID,0,VALID,24.2671,VALID,109,VALID,1.46133,
2011-09-14, 01:30:05,VALID,1000.3,VALID,0.5,VALID,88.7096,VALID,0,VALID,24.1872,VALID,91,VALID,1.89258,
2011-09-14, 01:31:05,VALID,1000.34,VALID,0,VALID,89.381,VALID,0,VALID,24.1696,VALID,88,VALID,2.30938,
2011-09-14, 01:32:05,VALID,1000.34,VALID,0,VALID,89.9074,VALID,0,VALID,24.0915,VALID,95,VALID,2.00078,
2011-09-14, 01:33:05,VALID,1000.3,VALID,0,VALID,90.0982,VALID,0,VALID,23.9744,VALID,81,VALID,1.82109,
2011-09-14, 01:34:05,VALID,1000.28,VALID,0,VALID,90.1592,VALID,0,VALID,23.9159,VALID,53,VALID,1.67344,
2011-09-14, 01:35:05,VALID,1000.29,VALID,0,VALID,90.3423,VALID,0,VALID,23.9159,VALID,43,VALID,1.31289,
2011-09-14, 01:36:05,VALID,1000.24,VALID,0,VALID,90.5788,VALID,0.112286,VALID,23.8963,VALID,39,VALID,1.19727,
2011-09-14, 01:37:05,VALID,1000.27,VALID,0,VALID,90.7085,VALID,0,VALID,23.8573,VALID,2,VALID,1.37188,
2011-09-14, 01:38:05,VALID,1000.28,VALID,0,VALID,90.7772,VALID,0,VALID,23.8768,VALID,289,VALID,1.43203,
2011-09-14, 01:39:05,VALID,1000.31,VALID,0,VALID,90.9985,VALID,0,VALID,23.836,VALID,258,VALID,1.60938,
2011-09-14, 01:40:05,VALID,1000.3,VALID,0,VALID,91.1968,VALID,0,VALID,23.836,VALID,280,VALID,1.05156,
2011-09-14, 01:41:05,VALID,1000.23,VALID,0,VALID,91.2426,VALID,0,VALID,23.836,VALID,329,VALID,1.65625,
2011-09-14, 01:42:05,VALID,1000.23,VALID,0,VALID,91.3113,VALID,0,VALID,23.8573,VALID,323,VALID,1.92656,
2011-09-14, 01:43:05,VALID,1000.19,VALID,0,VALID,91.296,VALID,0.112286,VALID,23.8165,VALID,329,VALID,1.5875,
2011-09-14, 01:44:05,VALID,1000.2,VALID,0,VALID,91.296,VALID,0,VALID,23.8165,VALID,311,VALID,1.14531,
2011-09-14, 01:45:05,VALID,1000.17,VALID,0,VALID,91.1206,VALID,0,VALID,23.8573,VALID,299,VALID,0.958203,
2011-09-14, 01:46:05,VALID,1000.15,VALID,0,VALID,90.9832,VALID,0,VALID,23.836,VALID,300,VALID,0.994922,
2011-09-14, 01:47:04,VALID,1000.16,VALID,0,VALID,90.4644,VALID,0,VALID,23.9159,VALID,256,VALID,2.01602,
2011-09-14, 01:48:04,VALID,1000.15,VALID,0,VALID,88.5875,VALID,0,VALID,24.1891,VALID,236,VALID,1.25508,
2011-09-14, 01:49:04,VALID,1000.17,VALID,0,VALID,87.2218,VALID,0,VALID,24.3647,VALID,279,VALID,1.29492,
2011-09-14, 01:50:04,VALID,1000.18,VALID,0,VALID,87.1455,VALID,0,VALID,24.3842,VALID,285,VALID,1.09531,
2011-09-14, 01:51:04,VALID,1000.14,VALID,0,VALID,86.6725,VALID,0,VALID,24.3629,VALID,276,VALID,1.64414,
2011-09-14, 01:52:04,VALID,1000.11,VALID,0,VALID,85.3831,VALID,0,VALID,24.5013,VALID,259,VALID,1.62695,
2011-09-14, 01:53:04,VALID,1000.14,VALID,0,VALID,85.467,VALID,0,VALID,24.5599,VALID,278,VALID,1.14648,
2011-09-14, 01:54:04,VALID,1000.11,VALID,0,VALID,85.5509,VALID,0,VALID,24.5404,VALID,250,VALID,1.53984,
2011-09-14, 01:55:04,VALID,1000.13,VALID,0,VALID,85.7798,VALID,0,VALID,24.5404,VALID,242,VALID,1.36797,
2011-09-14, 01:56:04,VALID,1000.13,VALID,0,VALID,85.6196,VALID,0,VALID,24.5404,VALID,232,VALID,1.14375,
2011-09-14, 01:57:04,VALID,1000.14,VALID,0,VALID,85.3831,VALID,0,VALID,24.5599,VALID,210,VALID,0.653906,
2011-09-14, 01:58:04,VALID,1000.16,VALID,0,VALID,84.994,VALID,0,VALID,24.5989,VALID,230,VALID,1.40156,
2011-09-14, 01:59:04,VALID,1000.15,VALID,0,VALID,84.1318,VALID,0,VALID,24.6965,VALID,217,VALID,1.90313,
2011-09-14, 02:00:04,VALID,1000.15,VALID,0,VALID,82.7127,VALID,0,VALID,24.8527,VALID,229,VALID,2.14609,
2011-09-14, 02:01:04,VALID,1000.19,VALID,0,VALID,81.0189,VALID,0,VALID,25.0479,VALID,210,VALID,1.49336,
2011-09-14, 02:02:04,VALID,1000.21,VALID,0,VALID,80.7595,VALID,0,VALID,25.1455,VALID,213,VALID,1.32344,
2011-09-14, 02:03:04,VALID,1000.21,VALID,0,VALID,81.965,VALID,0,VALID,25.1455,VALID,146,VALID,1.03867,
2011-09-14, 02:04:04,VALID,1000.22,VALID,0,VALID,82.8272,VALID,0,VALID,25.0088,VALID,106,VALID,1.52031,
2011-09-14, 02:05:04,VALID,1000.21,VALID,0,VALID,83.2315,VALID,0,VALID,24.9112,VALID,79,VALID,1.96719,
2011-09-14, 02:06:04,VALID,1000.22,VALID,0,VALID,84.1547,VALID,0,VALID,24.8332,VALID,53,VALID,1.19453,
2011-09-14, 02:07:04,VALID,1000.27,VALID,0,VALID,85.0016,VALID,0,VALID,24.6965,VALID,18,VALID,1.45,
2011-09-14, 02:08:04,VALID,1000.24,VALID,0,VALID,85.5128,VALID,0,VALID,24.5404,VALID,3,VALID,0.869922,
2011-09-14, 02:09:04,VALID,1000.23,VALID,0,VALID,86.0087,VALID,0.112286,VALID,24.4623,VALID,351,VALID,1.48008,
2011-09-14, 02:10:04,VALID,1000.21,VALID,0,VALID,86.2223,VALID,0,VALID,24.3824,VALID,351,VALID,1.20352,
2011-09-14, 02:11:04,VALID,1000.19,VALID,0,VALID,86.3368,VALID,0,VALID,24.3842,VALID,351,VALID,0.764453,
2011-09-14, 02:12:04,VALID,1000.16,VALID,0,VALID,86.2681,VALID,0,VALID,24.3452,VALID,354,VALID,1.42227,
2011-09-14, 02:13:04,VALID,1000.14,VALID,0,VALID,86.2223,VALID,0,VALID,24.3043,VALID,358,VALID,1.40742,
2011-09-14, 02:14:04,VALID,1000.18,VALID,0,VALID,86.2376,VALID,0,VALID,24.3043,VALID,7,VALID,1.05781,
2011-09-14, 02:15:04,VALID,1000.23,VALID,0,VALID,85.9095,VALID,0,VALID,24.3647,VALID,20,VALID,0.882422,
2011-09-14, 02:16:04,VALID,1000.27,VALID,0,VALID,85.9629,VALID,0,VALID,24.3647,VALID,27,VALID,0.547656,
2011-09-14, 02:17:04,VALID,1000.29,VALID,0,VALID,86.3292,VALID,0,VALID,24.2866,VALID,27,VALID,0.391406,
2011-09-14, 02:18:04,VALID,1000.22,VALID,0,VALID,86.5504,VALID,0,VALID,24.2067,VALID,12,VALID,0.698438,
2011-09-14, 02:19:04,VALID,1000.18,VALID,0,VALID,86.4512,VALID,0,VALID,24.2458,VALID,326,VALID,0.852734,
2011-09-14, 02:20:04,VALID,1000.22,VALID,0,VALID,86.3749,VALID,0,VALID,24.2653,VALID,321,VALID,0.995313,
2011-09-14, 02:21:04,VALID,1000.19,VALID,0,VALID,86.0926,VALID,0,VALID,24.3647,VALID,296,VALID,0.944531,
2011-09-14, 02:22:04,VALID,1000.17,VALID,0,VALID,85.9324,VALID,0,VALID,24.3824,VALID,287,VALID,1.00352,
2011-09-14, 02:23:04,VALID,1000.17,VALID,0,VALID,85.8027,VALID,0,VALID,24.4428,VALID,285,VALID,0.880078,
2011-09-14, 02:24:04,VALID,1000.12,VALID,0,VALID,85.9095,VALID,0.112286,VALID,24.4019,VALID,285,VALID,0.887891,
2011-09-14, 02:25:04,VALID,1000.14,VALID,0,VALID,85.94,VALID,0,VALID,24.4019,VALID,297,VALID,1.00664,
2011-09-14, 02:26:04,VALID,1000.13,VALID,0,VALID,85.7417,VALID,0,VALID,24.4623,VALID,286,VALID,0.789453,
2011-09-14, 02:27:04,VALID,1000.12,VALID,0,VALID,85.7493,VALID,0,VALID,24.4623,VALID,283,VALID,0.903516,
2011-09-14, 02:28:04,VALID,1000.11,VALID,0,VALID,84.9787,VALID,0,VALID,24.5013,VALID,290,VALID,1.13594,
2011-09-14, 02:29:04,VALID,1000.14,VALID,0,VALID,84.7346,VALID,0,VALID,24.5775,VALID,301,VALID,1.15,
2011-09-14, 02:30:04,VALID,1000.09,VALID,0,VALID,84.8032,VALID,0,VALID,24.6166,VALID,311,VALID,1.27227,
2011-09-14, 02:31:04,VALID,1000.12,VALID,0,VALID,85.406,VALID,0,VALID,24.519,VALID,242,VALID,1.22422,
2011-09-14, 02:32:04,VALID,1000.14,VALID,0,VALID,85.4746,VALID,0,VALID,24.4604,VALID,283,VALID,1.05273,
2011-09-14, 02:33:04,VALID,1000.14,VALID,0,VALID,85.2152,VALID,0,VALID,24.48,VALID,285,VALID,1.05938,
2011-09-14, 02:34:04,VALID,1000.15,VALID,0,VALID,85.1008,VALID,0,VALID,24.5599,VALID,308,VALID,1.56641,
2011-09-14, 02:35:04,VALID,1000.15,VALID,0,VALID,84.2844,VALID,0,VALID,24.5989,VALID,314,VALID,1.4207,
2011-09-14, 02:36:04,VALID,1000.18,VALID,0,VALID,83.2544,VALID,0,VALID,24.7142,VALID,250,VALID,1.53516,
2011-09-14, 02:37:04,VALID,1000.21,VALID,0,VALID,82.6212,VALID,0,VALID,24.8313,VALID,232,VALID,0.977344,
2011-09-14, 02:38:04,VALID,1000.24,VALID,0,VALID,82.8577,VALID,0,VALID,24.8527,VALID,242,VALID,0.707422,
2011-09-14, 02:39:04,VALID,1000.24,VALID,0,VALID,81.6064,VALID,0,VALID,24.8898,VALID,229,VALID,2.43672,
2011-09-14, 02:40:04,VALID,1000.28,VALID,0,VALID,81.0723,VALID,0,VALID,24.9874,VALID,233,VALID,1.97617,
2011-09-14, 02:41:04,VALID,1000.24,VALID,0,VALID,80.5764,VALID,0.112286,VALID,25.0869,VALID,238,VALID,1.59883,
2011-09-14, 02:42:04,VALID,1000.29,VALID,0,VALID,80.4238,VALID,0,VALID,25.1045,VALID,214,VALID,0.929297,
2011-09-14, 02:43:04,VALID,1000.28,VALID,0,VALID,80.4772,VALID,0.112286,VALID,25.1045,VALID,184,VALID,1.72227,
2011-09-14, 02:44:04,VALID,1000.23,VALID,0,VALID,80.1568,VALID,0,VALID,25.1455,VALID,181,VALID,2.2207,
2011-09-14, 02:45:04,VALID,1000.24,VALID,0,VALID,79.9737,VALID,0,VALID,25.1241,VALID,197,VALID,1.67695,
2011-09-14, 02:46:04,VALID,1000.24,VALID,0,VALID,80.5535,VALID,0.112286,VALID,25.1455,VALID,176,VALID,2.32969,
2011-09-14, 02:47:04,VALID,1000.21,VALID,0,VALID,81.6751,VALID,0,VALID,25.0674,VALID,166,VALID,1.79688,
2011-09-14, 02:48:04,VALID,1000.23,VALID,0,VALID,82.5372,VALID,0,VALID,24.8898,VALID,163,VALID,2.47344,
2011-09-14, 02:49:04,VALID,1000.15,VALID,0,VALID,83.2697,VALID,0.112286,VALID,24.7337,VALID,157,VALID,1.61875,
2011-09-14, 02:50:04,VALID,1000.18,VALID,0,VALID,84.1395,VALID,0,VALID,24.6184,VALID,155,VALID,1.37109,
2011-09-14, 02:51:04,VALID,1000.22,VALID,0,VALID,85.4441,VALID,0,VALID,24.4818,VALID,146,VALID,1.51797,
2011-09-14, 02:52:04,VALID,1000.2,VALID,0,VALID,86.291,VALID,0,VALID,24.3257,VALID,147,VALID,1.00977,
2011-09-14, 02:53:04,VALID,1000.19,VALID,0,VALID,86.8937,VALID,0,VALID,24.1677,VALID,173,VALID,0.896484,
2011-09-14, 02:54:04,VALID,1000.24,VALID,0,VALID,87.8474,VALID,0,VALID,24.0915,VALID,185,VALID,1.08008,
2011-09-14, 02:55:04,VALID,1000.22,VALID,0,VALID,88.1984,VALID,0,VALID,23.9921,VALID,185,VALID,0.412891,
2011-09-14, 02:56:04,VALID,1000.21,VALID,0,VALID,88.5417,VALID,0,VALID,23.9531,VALID,240,VALID,0.838281,
2011-09-14, 02:57:04,VALID,1000.17,VALID,0,VALID,88.618,VALID,0,VALID,23.914,VALID,240,VALID,0.414063,
2011-09-14, 02:58:04,VALID,1000.16,VALID,0,VALID,88.702,VALID,0.112286,VALID,23.8945,VALID,241,VALID,0.669141,
2011-09-14, 02:59:04,VALID,1000.2,VALID,0,VALID,88.702,VALID,0,VALID,23.8945,VALID,241,VALID,0.482812,
2011-09-14, 03:00:04,VALID,1000.2,VALID,0,VALID,88.7477,VALID,0,VALID,23.8555,VALID,238,VALID,0.551953,
2011-09-14, 03:01:04,VALID,1000.19,VALID,0,VALID,88.8317,VALID,0,VALID,23.8768,VALID,238,VALID,0.373047,
2011-09-14, 03:02:04,VALID,1000.22,VALID,0,VALID,88.9003,VALID,0,VALID,23.8378,VALID,238,VALID,0.227344,
2011-09-14, 03:03:04,VALID,1000.19,VALID,0,VALID,89.0911,VALID,0,VALID,23.7775,VALID,232,VALID,0.55625,
2011-09-14, 03:04:04,VALID,1000.19,VALID,0,VALID,89.2055,VALID,0,VALID,23.7384,VALID,232,VALID,0.300781,
2011-09-14, 03:05:04,VALID,1000.24,VALID,0,VALID,89.4039,VALID,0.112286,VALID,23.7402,VALID,167,VALID,1.02227,
2011-09-14, 03:06:04,VALID,1000.23,VALID,0,VALID,89.8235,VALID,0,VALID,23.7012,VALID,145,VALID,1.50508,
2011-09-14, 03:07:04,VALID,1000.26,VALID,0,VALID,89.9914,VALID,0,VALID,23.6604,VALID,145,VALID,1.50117,
2011-09-14, 03:08:04,VALID,1000.27,VALID,0,VALID,90.2203,VALID,0.112286,VALID,23.6019,VALID,149,VALID,1.57656,
2011-09-14, 03:09:04,VALID,1000.29,VALID,0,VALID,90.5483,VALID,0,VALID,23.5433,VALID,158,VALID,1.88945,
2011-09-14, 03:10:04,VALID,1000.3,VALID,0,VALID,90.8535,VALID,0,VALID,23.5238,VALID,158,VALID,1.69531,
2011-09-14, 03:11:04,VALID,1000.29,VALID,0,VALID,91.0671,VALID,0,VALID,23.5061,VALID,141,VALID,1.47383,
2011-09-14, 03:12:04,VALID,1000.27,VALID,0,VALID,91.1892,VALID,0,VALID,23.4671,VALID,130,VALID,1.24492,
2011-09-14, 03:13:04,VALID,1000.3,VALID,0,VALID,91.2884,VALID,0,VALID,23.4263,VALID,137,VALID,1.8875,
2011-09-14, 03:14:04,VALID,1000.33,VALID,0,VALID,91.38,VALID,0,VALID,23.4085,VALID,148,VALID,2.39766,
2011-09-14, 03:15:04,VALID,1000.36,VALID,0,VALID,91.4868,VALID,0,VALID,23.428,VALID,151,VALID,2.45508,
2011-09-14, 03:16:04,VALID,1000.35,VALID,0,VALID,91.5631,VALID,0,VALID,23.3872,VALID,139,VALID,2.39492,
2011-09-14, 03:17:04,VALID,1000.39,VALID,0,VALID,91.5783,VALID,0,VALID,23.3872,VALID,146,VALID,2.08164,
2011-09-14, 03:18:04,VALID,1000.35,VALID,0,VALID,91.6317,VALID,0,VALID,23.4085,VALID,145,VALID,1.95664,
2011-09-14, 03:19:04,VALID,1000.4,VALID,0,VALID,91.6241,VALID,0,VALID,23.3677,VALID,140,VALID,1.88594,
2011-09-14, 03:20:04,VALID,1000.4,VALID,0,VALID,91.6317,VALID,0,VALID,23.3482,VALID,141,VALID,2.12969,
2011-09-14, 03:21:04,VALID,1000.4,VALID,0,VALID,91.5707,VALID,0,VALID,23.3287,VALID,138,VALID,1.99531,
2011-09-14, 03:22:04,VALID,1000.43,VALID,0,VALID,91.4944,VALID,0,VALID,23.3482,VALID,138,VALID,2.0082,
2011-09-14, 03:23:04,VALID,1000.45,VALID,0,VALID,91.4868,VALID,0,VALID,23.3482,VALID,123,VALID,1.60391,
2011-09-14, 03:24:04,VALID,1000.41,VALID,0,VALID,91.4334,VALID,0,VALID,23.3092,VALID,114,VALID,1.71016,
2011-09-14, 03:25:04,VALID,1000.45,VALID,0,VALID,91.3647,VALID,0,VALID,23.3092,VALID,116,VALID,1.49141,
2011-09-14, 03:26:04,VALID,1000.47,VALID,0,VALID,91.38,VALID,0.112286,VALID,23.3092,VALID,114,VALID,1.28359,
2011-09-14, 03:27:04,VALID,1000.47,VALID,0,VALID,91.4486,VALID,0,VALID,23.2897,VALID,116,VALID,1.46953,
2011-09-14, 03:28:04,VALID,1000.47,VALID,0,VALID,91.5097,VALID,0,VALID,23.2507,VALID,114,VALID,1.62148,
2011-09-14, 03:29:04,VALID,1000.46,VALID,0,VALID,91.6775,VALID,0,VALID,23.2507,VALID,108,VALID,1.6582,
2011-09-14, 03:30:04,VALID,1000.39,VALID,0,VALID,91.792,VALID,0.112286,VALID,23.2312,VALID,107,VALID,1.11719,
2011-09-14, 03:31:04,VALID,1000.43,VALID,0,VALID,91.8606,VALID,0,VALID,23.2312,VALID,98,VALID,0.535156,
2011-09-14, 03:32:04,VALID,1000.52,VALID,0,VALID,91.8911,VALID,0,VALID,23.2312,VALID,144,VALID,2.32734,
2011-09-14, 03:33:04,VALID,1000.49,VALID,0,VALID,91.8835,VALID,0,VALID,23.2915,VALID,140,VALID,1.58125,
2011-09-14, 03:34:04,VALID,1000.54,VALID,0,VALID,91.792,VALID,0,VALID,23.2915,VALID,121,VALID,1.38555,
2011-09-14, 03:35:04,VALID,1000.53,VALID,0,VALID,91.6241,VALID,0.112286,VALID,23.311,VALID,110,VALID,1.71953,
2011-09-14, 03:36:04,VALID,1000.51,VALID,0,VALID,91.1282,VALID,0,VALID,23.3872,VALID,92,VALID,1.52969,
2011-09-14, 03:37:04,VALID,1000.54,VALID,0,VALID,90.0143,VALID,0.112286,VALID,23.5043,VALID,141,VALID,1.88477,
2011-09-14, 03:38:04,VALID,1000.52,VALID,0,VALID,88.3205,VALID,0,VALID,23.7207,VALID,112,VALID,2.44102,
2011-09-14, 03:39:04,VALID,1000.52,VALID,0,VALID,86.3139,VALID,0,VALID,23.9939,VALID,106,VALID,0.991406,
2011-09-14, 03:40:04,VALID,1000.51,VALID,0,VALID,85.6883,VALID,0,VALID,24.1092,VALID,147,VALID,1.04062,
2011-09-14, 03:41:04,VALID,1000.51,VALID,0,VALID,85.4136,VALID,0,VALID,24.1482,VALID,142,VALID,0.592578,
2011-09-14, 03:42:04,VALID,1000.49,VALID,0,VALID,85.3373,VALID,0,VALID,24.1891,VALID,154,VALID,1.0957,
2011-09-14, 03:43:04,VALID,1000.5,VALID,0,VALID,84.5896,VALID,0,VALID,24.2458,VALID,192,VALID,1.43984,
2011-09-14, 03:44:04,VALID,1000.54,VALID,0,VALID,84.7193,VALID,0,VALID,24.4037,VALID,198,VALID,1.07344,
2011-09-14, 03:45:04,VALID,1000.52,VALID,0,VALID,83.7046,VALID,0,VALID,24.5209,VALID,206,VALID,1.42695,